This is the latest recevied weather packets stored in our database for station/object PY2ELM-13. If no packets are shown the sender has not sent any weather packets the latest 10 day(s).
| Time | Temp. | Humidity | Pressure | Rain* | Wind** | Luminosity | Snow |
|---|---|---|---|---|---|---|---|
| 1787651025 | 18.33° C | 60% | 1029.5 hPa | - | - | - | - |
| 1787650425 | 18.33° C | 60% | 1029.3 hPa | - | - | - | - |
| 1787649825 | 18.33° C | 60% | 1029.5 hPa | - | - | - | - |
| 1787649224 | 18.33° C | 60% | 1029 hPa | - | - | - | - |
| 1787648625 | 18.33° C | 60% | 1029.2 hPa | - | - | - | - |
| 1787648025 | 18.33° C | 60% | 1029 hPa | - | - | - | - |
| 1787647425 | 18.33° C | 60% | 1028.8 hPa | - | - | - | - |
| 1787646824 | 18.89° C | 59% | 1028.8 hPa | - | - | - | - |
| 1787646224 | 18.89° C | 59% | 1028.6 hPa | - | - | - | - |
| 1787645625 | 18.89° C | 59% | 1028.5 hPa | - | - | - | - |
| 1787645025 | 19.44° C | 59% | 1028.4 hPa | - | - | - | - |
| 1787644425 | 19.44° C | 59% | 1028.4 hPa | - | - | - | - |
| 1787643825 | 19.44° C | 59% | 1028.1 hPa | - | - | - | - |
| 1787643224 | 18.89° C | 59% | 1028.5 hPa | - | - | - | - |
| 1787642624 | 19.44° C | 58% | 1028.3 hPa | - | - | - | - |
| 1787642024 | 19.44° C | 58% | 1028.1 hPa | - | - | - | - |
| 1787641425 | 19.44° C | 58% | 1028.3 hPa | - | - | - | - |
| 1787640825 | 19.44° C | 58% | 1028.5 hPa | - | - | - | - |
| 1787640224 | 19.44° C | 58% | 1028.6 hPa | - | - | - | - |
| 1787639624 | 19.44° C | 58% | 1028.5 hPa | - | - | - | - |
| 1787639025 | 19.44° C | 58% | 1028.6 hPa | - | - | - | - |
| 1787638424 | 20° C | 57% | 1028.5 hPa | - | - | - | - |
| 1787637824 | 19.44° C | 58% | 1028.5 hPa | - | - | - | - |
| 1787637224 | 20° C | 57% | 1028.5 hPa | - | - | - | - |
| 1787636624 | 20° C | 57% | 1028.4 hPa | - | - | - | - |
* Rain since midnight (hover to see other rain measurements)
** Current wind speed in m/s (hover to see current wind gust speed)